Location: ?????????
(54.7630°N, 39.4991°E)
Time: 08:54:08
(UTC+00:00)

Cosmos 1656 Rocket - Pass Details

Date: 14 April 2026
Orbit: 794 x 843 km, 71.1° (Epoch: 9 May)

Event Time Altitude Azimuth Distance (km) Brightness Sun altitude
Rises 18:54:30 0° 326° (NW) 3,314 8.5 -18.6°
Reaches altitude 10° 18:56:55 10° 324° (NW) 2,385 7.3 -18.8°
Maximum altitude 19:02:19 67° 243° (WSW) 872 3.7 -19.2°
Enters shadow 19:04:42 34° 171° (S) 1,317 4.2 -19.4°
